Location: *
(45.5500°N, 8.1000°E)
Time: 20:19:18
(UTC+00:00)

Daily predictions for brighter satellites

Satellite Brightness Start Highest point End
(mag) Time Altitude Azimuth Time Altitude Azimuth Time Altitude Azimuth
Unknown 3.9 17:04:41 10° SW 17:08:42 53° SE 17:12:44 10° ENE
Unknown 3.8 17:04:49 10° SW 17:08:53 58° SE 17:12:58 10° ENE
Cosmos 1503 Rocket 4.3 17:04:10 10° N 17:09:07 43° ENE 17:14:01 10° SE
Cosmos 332 Rocket 4.2 17:04:48 10° SSW 17:09:37 72° WNW 17:14:30 10° NNE
Unknown 3.8 17:06:25 10° SW 17:10:29 58° SE 17:14:34 10° ENE
CZ-4C R/B 3.0 17:04:09 10° NW 17:11:19 75° NE 17:19:31 10° SE
YAOGAN 6 3.3 17:08:34 10° SE 17:11:54 33° ENE 17:15:13 10° N
Unknown 3.8 17:09:28 10° SW 17:13:31 56° SE 17:17:35 10° ENE
SKYMED 2 4.0 17:10:18 10° NNE 17:14:28 42° E 17:18:34 10° S
GP-B 4.2 17:11:28 10° N 17:15:47 51° W 17:20:05 10° SSW
Unknown 3.8 17:12:46 10° SW 17:16:51 59° SE 17:20:56 10° ENE
ATLAS 5 CENTAUR R/B 1.6 17:14:12 10° SSW 17:18:20 61° ESE 17:22:59 10° NE
Unknown 3.8 17:14:29 10° SW 17:18:34 61° SE 17:22:40 10° ENE
Unknown 3.7 17:16:04 10° SW 17:20:10 62° SE 17:24:16 10° ENE
YAOGAN 1 3.1 17:16:45 10° SE 17:20:45 39° ENE 17:24:47 10° N
Unknown 3.7 17:17:46 10° SW 17:21:52 64° SE 17:25:59 10° ENE
SL-4 R/B 1.8 17:24:17 10° WNW 17:28:12 67° NNE 17:31:41 11° ESE
Unknown 3.6 17:24:22 10° SW 17:28:27 79° SE 17:32:33 10° ENE
Unknown 3.6 17:24:22 10° SW 17:28:28 72° SE 17:32:37 10° ENE
Unknown 3.6 17:26:00 10° SW 17:30:07 74° SE 17:34:16 10° ENE
Cosmos 2263 Rocket 3.8 17:26:18 10° WSW 17:31:30 36° NW 17:36:43 10° NNE
Unknown 3.6 17:27:41 10° SW 17:31:49 76° SE 17:35:55 10° ENE
EO 1 Delta rocket 4.3 17:28:09 10° SE 17:32:24 36° ENE 17:36:43 10° N
Okean-O 3.5 17:28:21 10° S 17:32:41 54° W 17:37:03 10° NNW
CSL-04 Rocket 3.8 17:27:29 10° SSE 17:32:55 59° ENE 17:38:20 10° N
Unknown 3.6 17:29:20 10° SW 17:33:27 78° SSE 17:37:30 11° ENE
CZ-2D R/B 4.1 17:31:27 10° SE 17:34:46 28° ENE 17:38:07 10° N
Unknown 3.6 17:30:57 10° SW 17:35:05 80° SE 17:39:04 11° ENE
Cosmos 1726 Rocket 3.7 17:31:32 10° S 17:35:48 50° E 17:40:04 10° NNE
Cosmos 2239 Rocket 4.4 17:31:38 10° N 17:37:48 69° E 17:43:54 10° SSE
Cosmos 1271 Rocket 2.7 17:34:14 10° N 17:38:10 63° ENE 17:42:06 10° SSE
Unknown 3.6 17:34:20 10° SW 17:38:29 84° SSE 17:42:20 12° ENE
Cosmos 724 4.5 17:33:24 10° SW 17:39:34 86° WNW 17:45:39 10° NE
Starlink (trailer) 3.6 17:35:58 10° SW 17:40:07 86° SSE 17:43:54 12° ENE
BREEZE M DEB (TANK) 1.9 17:38:47 10° WNW 17:40:58 58° NNE 17:44:18 15° E
Unknown 3.6 17:37:39 10° SW 17:41:48 88° SE 17:45:31 13° ENE
Cosmos 2058 Rocket 3.5 17:38:58 10° SSE 17:43:01 39° E 17:47:05 10° NNE
Cosmos 1953 2.3 17:39:00 10° S 17:43:04 89° ENE 17:47:09 10° N
Unknown 3.8 17:39:06 10° WSW 17:43:09 71° NNW 17:46:49 12° NE
Cosmos 1605 Rocket 4.5 17:37:41 10° N 17:43:25 37° ENE 17:49:03 10° SE
Unknown 3.6 17:39:16 10° WSW 17:43:25 90° SSE 17:47:05 13° ENE
Cosmos 1821 Rocket 3.9 17:37:27 10° N 17:43:36 84° E 17:49:44 10° S
Lacrosse 5 3.4 17:40:20 10° NW 17:44:24 24° N 17:47:59 12° ENE
Shenzhou-11 Module 3.1 17:42:50 10° SW 17:45:13 26° SSE 17:46:27 18° ESE
Cosmos 1833 Rocket 3.9 17:42:42 10° N 17:47:04 22° NE 17:49:44 16° E
Nadezhda 3 Rocket 4.1 17:43:33 10° S 17:49:50 86° W 17:56:12 10° N
Unknown 3.6 17:45:55 10° WSW 17:50:04 82° NNW 17:53:28 15° ENE
Unknown 3.6 17:46:00 10° WSW 17:50:08 81° NNW 17:53:32 15° ENE
Cosmos 1703 3.8 17:46:48 10° N 17:50:29 35° ENE 17:54:06 10° SE
Unknown 3.7 17:46:47 10° WSW 17:50:55 81° NNW 17:54:18 15° ENE
COBE Rocket 4.4 17:46:58 10° N 17:52:09 69° WNW 17:57:13 10° SSW
Cosmos 2228 3.0 17:48:33 10° S 17:52:56 82° E 17:57:19 10° N
Cosmos 1626 4.1 17:51:35 10° NNW 17:54:56 32° W 17:58:17 10° SSW
Unknown 3.7 17:50:56 10° WSW 17:55:04 76° NNW 17:58:17 16° NE
Unknown 3.7 17:50:55 10° WSW 17:55:04 77° NNW 17:58:16 17° NE
Unknown 3.8 17:52:42 10° WSW 17:56:51 73° NNW 17:59:59 17° NE
COSMOS 2406 3.5 17:52:26 10° NNW 17:58:03 49° ENE 18:02:53 14° SE
Cosmos 1535 Rocket 4.4 17:51:55 10° N 17:58:10 72° E 18:04:18 10° SSE
Envisat 3.9 17:53:53 10° S 17:58:51 53° W 18:03:50 10° NNW
Unknown 3.8 17:56:02 10° WSW 18:00:09 70° NNW 18:03:10 18° NE
Cosmos 1934 Rocket 4.0 17:53:56 10° N 18:00:16 74° E 18:06:37 10° SSE
Unknown 3.8 17:56:40 10° WSW 18:00:47 71° NNW 18:03:45 18° NE
Unknown 3.8 17:57:37 10° WSW 18:01:45 70° NNW 18:04:41 19° NE
Cosmos 2082 Rocket 3.5 17:58:02 10° N 18:02:23 22° NE 18:04:05 19° ENE
COSMO-SKYMED 1 3.2 17:58:19 10° N 18:02:37 60° WNW 18:06:53 10° SSW
Cosmos 1726 2.1 17:59:09 10° S 18:02:44 54° E 18:06:20 10° NNE
Cosmos 1939 Rocket 2.9 18:00:57 10° SSE 18:04:48 55° ENE 18:08:45 10° N
Unknown 3.8 18:00:50 10° WSW 18:04:58 69° NNW 18:07:45 20° NE
Cosmos 921 Rocket 3.0 18:00:50 10° S 18:05:18 70° ESE 18:09:47 10° NNE
Meteor 1-11 4.4 17:59:50 10° N 18:05:28 54° ENE 18:11:07 10° SSE
Cosmos 292 Rocket 4.0 18:01:17 10° S 18:05:45 43° ESE 18:10:16 10° NNE
DMSP B5D1-3 4.5 18:02:10 10° NNE 18:07:17 63° ESE 18:12:21 10° S
Unknown 3.9 18:04:16 10° WSW 18:08:24 64° NNW 18:11:03 21° NE
Cosmos 482 Debris 4.1 18:03:50 10° WNW 18:08:52 73° NNE 18:10:07 36° ESE
Unknown 3.9 18:05:56 10° WSW 18:10:03 63° NNW 18:12:38 22° NE
Unknown 4.0 18:07:39 10° WSW 18:11:46 61° NNW 18:14:16 22° NE
Cosmos 1356 3.3 18:09:36 10° S 18:13:00 65° E 18:16:26 10° NNE
Unknown 4.0 18:09:19 10° WSW 18:13:25 60° NNW 18:15:52 23° NE
Lacrosse 5 rocket 1.2 18:11:53 10° NW 18:15:40 74° SW 18:17:43 27° SE
Cosmos 1953 Rocket 4.3 18:12:21 10° NNW 18:16:39 54° W 18:20:53 10° S
Unknown 4.1 18:12:37 10° WSW 18:16:43 57° NNW 18:19:01 24° NE
Unknown 4.1 18:14:23 10° WSW 18:18:28 56° NNW 18:20:42 25° NE
USA 116 4.0 18:15:33 10° N 18:18:35 52° WNW 18:21:43 10° SSW
Unknown 4.1 18:16:00 10° WSW 18:20:05 55° NNW 18:22:15 25° NE
Cosmos 2084 3.7 18:15:52 10° SW 18:20:25 73° NW 18:24:06 15° NE
Unknown 4.1 18:17:36 10° WSW 18:21:41 55° NNW 18:23:47 26° NE
CZ-4 R/B 3.1 18:18:03 10° SSW 18:21:52 36° W 18:25:45 10° NNW
Unknown 4.2 18:18:17 10° WSW 18:22:20 54° NNW 18:24:25 26° NE
Unknown 4.1 18:20:48 10° WSW 18:24:52 55° NNW 18:26:49 28° NE
Meteor 1-16 Rocket 4.4 18:20:55 10° SSW 18:26:32 73° WNW 18:32:00 10° N
Cosmos 1242 Rocket 3.0 18:24:25 10° NNW 18:28:05 63° W 18:31:43 10° S
Unknown 4.2 18:24:11 10° WSW 18:28:14 53° NNW 18:30:02 29° NE
Unknown 4.2 18:25:50 10° WSW 18:29:52 52° NNW 18:31:36 30° NE
Cosmos 1328 4.1 18:26:04 10° NNW 18:30:03 68° W 18:33:59 10° S
Cosmos 1844 Rocket 3.5 18:24:47 10° SW 18:30:18 52° WNW 18:35:50 10° NNE
ADEOS Rocket 3.9 18:24:40 10° NNE 18:31:45 37° E 18:38:27 10° SSE
Unknown 4.4 18:27:46 10° W 18:31:48 48° NNW 18:33:29 30° NE
Unknown 3.8 18:29:34 10° NW 18:31:23 34° NNW 18:31:23 34° NNW
Cosmos 1908 3.1 18:29:07 10° S 18:33:02 86° E 18:36:57 10° N
Unknown 4.3 18:29:09 10° W 18:33:12 50° NNW 18:34:47 31° NNE
Cosmos 1153 Rocket 4.4 18:27:55 10° N 18:33:59 58° ENE 18:38:15 20° SSE
Unknown 4.3 18:30:53 10° W 18:34:54 49° NNW 18:36:25 32° NNE
Unknown 4.4 18:34:11 10° W 18:38:12 47° NNW 18:39:34 33° NNE
Unknown 4.4 18:35:55 10° W 18:39:55 46° NNW 18:41:14 34° NNE
SPOT 3 Rocket 3.8 18:39:51 44° E 18:40:20 45° ENE 18:45:17 10° N
Meteor 2-10 4.2 18:35:54 10° SSW 18:41:00 68° WNW 18:46:03 10° N
Ariane Rocket 3.2 18:36:15 10° S 18:41:20 73° WSW 18:46:27 10° NNW
Unknown 4.4 18:37:35 10° W 18:41:35 46° NNW 18:42:49 34° NNE
Unknown 4.5 18:39:18 10° W 18:43:17 45° NNW 18:44:26 35° NNE
Cosmos 2278 Rocket 2.2 18:38:07 10° S 18:43:37 55° ESE 18:46:34 27° NE
Cosmos 489 Rocket 4.4 18:39:20 10° SSW 18:45:34 87° WNW 18:51:50 10° NNE
USA 238 DEB 4.1 18:42:12 10° S 18:47:26 36° SE 18:47:26 36° SE
USA 238 4.2 18:42:20 10° S 18:47:27 36° SE 18:47:27 36° SE
USA 234 3.6 18:57:29 42° SE 18:57:29 42° SE 19:03:32 10° SSW
H-2A R/B 2.2 18:59:39 55° ENE 18:59:39 55° ENE 19:04:36 10° N
SJ-11-01 4.2 18:59:52 61° S 19:00:41 87° W 19:05:24 10° NNW
Cosmos 1777 Rocket 4.1 18:56:42 10° NNW 19:01:55 74° WSW 19:03:37 43° S
ATLAS 5 CENTAUR R/B 3.7 18:59:46 10° W 19:03:25 24° NNW 19:07:08 11° NNE
SL-4 R/B 3.7 19:04:28 10° W 19:07:19 23° SW 19:07:19 23° SW
CZ-2C R/B 3.9 19:10:54 42° NE 19:10:54 42° NE 19:15:21 10° N
Gbstr 26 Del rocket 4.2 19:09:46 10° WNW 19:16:12 69° NNE 19:17:24 59° ENE
Cosmos 1461 4.4 19:13:48 10° NNW 19:15:58 29° NNW 19:15:58 29° NNW
Lacrosse 5 2.8 19:23:25 10° NW 19:27:11 41° N 19:27:11 41° N
BREEZE-M DEB (TANK) 3.5 19:21:19 10° WSW 19:27:40 51° WSW 19:27:40 51° WSW
Cosmos 1833 Rocket 2.8 19:25:57 10° NNW 19:31:28 71° WSW 19:31:28 71° WSW
Cosmos 1459 Rocket 3.8 19:26:00 10° N 19:32:12 89° NW 19:32:12 89° NW
Resurs 01 Rocket 3.9 19:35:40 17° N 19:35:40 17° N 19:36:40 10° N
ARGOS 3.4 19:34:28 64° NNW 19:34:28 64° NNW 19:39:03 10° NNW
Cosmos 1802 Rocket 4.0 19:33:05 10° N 19:38:56 74° N 19:38:56 74° N
Cosmos 2082 Rocket 2.7 19:41:23 10° NNW 19:45:57 57° NW 19:45:57 57° NW
Cosmos 2173 Rocket 4.2 19:45:30 10° NNW 19:51:41 65° W 19:51:41 65° W
SJ 16-02 4.2 19:54:29 10° N 19:54:38 11° N 19:54:38 11° N
ADEOS Rocket 4.1 20:09:55 10° N 20:17:24 53° WNW 20:24:31 10° SW
Cosmos 2278 Rocket 4.0 20:23:13 10° WSW 20:28:02 28° NW 20:28:36 27° NW
H-2A R/B 4.4 20:40:17 20° WNW 20:40:17 20° WNW 20:43:09 10° NW
